Location: Street
(51.1247°N, 2.7429°W)
Time: 03:57:45
(UTC+00:00)

Transit 2A Rocket - Pass Details

Date: 04 December 2020
Orbit: 592 x 911 km, 66.7° (Epoch: 16 January)

Event Time Altitude Azimuth Distance (km) Brightness Sun altitude
Exits shadow 05:12:37 15° 355° (N) 1,993 7.0 -24.7°
Maximum altitude 05:12:39 15° 355° (N) 1,992 7.0 -24.7°
Drops below altitude 10° 05:15:27 10° 29° (NNE) 2,234 7.7 -24.2°
Sets 05:18:50 0° 54° (NE) 3,081 8.8 -23.7°
